Date String (YYYY-MM-DD hh:mm:ss) UTC,Instrument flags,Ambient pressure (hPa),Sample flow (lpm),Bypass flow (lpm),Sample temperature (°C),Ambient temperature (°C),ASC tube jacket temperature (°C),LED temperature (°C),Box temperature (°C),Sample RH (%),Span deviation,Mass concentration (μg/m³),Mass concentration (μg/m³),Mass concentration (μg/m³)
DateTimeUTC,F1_M11,P_M11,Q1_M11,Q2_M11,T1_M11,T2_M11,T3_M11,T4_M11,T5_M11,U1_M11,ZSPAN_M11,X0_M11,X2_M11,X1_M11
2022-05-26 05:00:00,,0825.3,5.00,0.00,30.2,29.3,00.0,39.1,32.0,13.2,0000.0,0012.08,0003.55,0002.48
2022-05-26 05:01:00,,0825.3,4.99,0.00,30.2,29.2,00.0,39.1,32.0,13.1,0000.0,0010.27,0003.58,0002.44
2022-05-26 05:02:00,,0825.3,5.01,0.00,30.2,29.3,00.0,39.1,32.0,13.2,0000.0,0010.13,0003.57,0002.41
2022-05-26 05:03:00,,0825.3,5.00,0.00,30.2,29.3,00.0,39.1,32.0,13.0,0000.0,0010.03,0003.51,0002.37
2022-05-26 05:04:00,,0825.3,4.99,0.00,30.2,29.3,00.0,39.1,32.0,13.2,0000.0,0009.40,0003.46,0002.34
2022-05-26 05:05:00,,0825.3,5.00,0.00,30.2,29.3,00.0,39.1,32.0,13.1,0000.0,0009.34,0003.42,0002.30
2022-05-26 05:06:00,,0825.3,5.00,0.00,30.2,29.3,00.0,39.1,32.0,12.9,0000.0,0009.15,0003.34,0002.27
2022-05-26 05:07:00,,0825.3,5.00,0.00,30.2,29.3,00.0,39.1,32.0,13.2,0000.0,0008.74,0003.28,0002.26
2022-05-26 05:08:00,,0825.4,4.99,0.00,30.2,29.3,00.0,39.1,32.1,13.2,0000.0,0008.04,0003.28,0002.25
2022-05-26 05:09:00,,0825.4,5.00,0.00,30.2,29.3,00.0,39.1,32.1,12.8,0000.0,0007.92,0003.33,0002.27
2022-05-26 05:10:00,,0825.4,5.00,0.00,30.3,29.3,00.0,39.1,32.1,12.7,0000.0,0008.01,0003.37,0002.26
2022-05-26 05:11:00,,0825.4,4.99,0.00,30.3,29.3,00.0,39.1,32.1,12.8,0000.0,0008.45,0003.36,0002.26
2022-05-26 05:12:00,,0825.5,5.01,0.00,30.3,29.3,00.0,39.1,32.1,12.6,0000.0,0008.38,0003.35,0002.27
2022-05-26 05:13:00,,0825.4,5.00,0.00,30.3,29.3,00.0,39.2,32.1,12.7,0000.0,0008.73,0003.33,0002.27
2022-05-26 05:14:00,,0825.5,5.00,0.00,30.3,29.4,00.0,39.2,32.1,12.7,0000.0,0008.96,0003.33,0002.26
2022-05-26 05:15:00,,0825.5,5.01,0.00,30.3,29.4,00.0,39.2,32.1,12.8,0000.0,0009.17,0003.32,0002.26
2022-05-26 05:16:00,,0825.5,5.00,0.00,30.3,29.4,00.0,39.2,32.1,12.9,0000.0,0009.74,0003.30,0002.27
2022-05-26 05:17:00,,0825.6,5.00,0.00,30.3,29.4,00.0,39.2,32.1,12.9,0000.0,0009.85,0003.32,0002.28
2022-05-26 05:18:00,,0825.6,5.00,0.00,30.3,29.4,00.0,39.2,32.1,12.7,0000.0,0010.56,0003.34,0002.27
2022-05-26 05:19:00,,0825.6,5.00,0.00,30.3,29.4,00.0,39.2,32.1,12.8,0000.0,0011.14,0003.34,0002.28
2022-05-26 05:20:00,,0825.6,5.00,0.00,30.3,29.4,00.0,39.2,32.1,12.8,0000.0,0010.80,0003.30,0002.27
2022-05-26 05:21:00,,0825.5,5.00,0.00,30.3,29.4,00.0,39.2,32.1,12.6,0000.0,0010.78,0003.29,0002.28
2022-05-26 05:22:00,,0825.6,4.99,0.00,30.4,29.4,00.0,39.2,32.1,12.6,0000.0,0010.33,0003.31,0002.29
2022-05-26 05:23:00,,0825.6,5.00,0.00,30.4,29.4,00.0,39.2,32.2,12.8,0000.0,0010.18,0003.25,0002.28
2022-05-26 05:24:00,,0825.7,5.00,0.00,30.4,29.4,00.0,39.2,32.2,12.8,0000.0,0009.88,0003.29,0002.29
2022-05-26 05:25:00,,0825.7,5.00,0.00,30.4,29.4,00.0,39.3,32.2,12.9,0000.0,0009.51,0003.30,0002.29
2022-05-26 05:26:00,,0825.7,5.00,0.00,30.4,29.4,00.0,39.3,32.2,13.0,0000.0,0010.60,0003.32,0002.30
2022-05-26 05:27:00,,0825.7,5.01,0.00,30.4,29.4,00.0,39.3,32.2,13.0,0000.0,0010.75,0003.35,0002.30
2022-05-26 05:28:00,,0825.7,5.00,0.00,30.4,29.4,00.0,39.3,32.2,12.9,0000.0,0011.30,0003.37,0002.32
2022-05-26 05:29:00,,0825.8,4.98,0.00,30.4,29.4,00.0,39.3,32.2,12.8,0000.0,0011.32,0003.33,0002.32
2022-05-26 05:30:00,,0825.8,5.01,0.00,30.4,29.4,00.0,39.3,32.2,12.9,0000.0,0011.87,0003.35,0002.32
2022-05-26 05:31:00,,0825.8,5.01,0.00,30.4,29.4,00.0,39.3,32.2,12.7,0000.0,0011.72,0003.35,0002.33
2022-05-26 05:32:00,,0825.8,5.00,0.00,30.4,29.4,00.0,39.3,32.2,12.4,0000.0,0012.12,0003.35,0002.33
2022-05-26 05:33:00,,0825.9,4.98,0.00,30.4,29.4,00.0,39.3,32.2,12.8,0000.0,0012.04,0003.33,0002.34
2022-05-26 05:34:00,,0825.9,5.00,0.00,30.4,29.4,00.0,39.3,32.2,12.9,0000.0,0012.47,0003.39,0002.37
2022-05-26 05:35:00,,0825.9,5.01,0.00,30.4,29.4,00.0,39.3,32.2,13.1,0000.0,0012.64,0003.36,0002.38
2022-05-26 05:36:00,,0825.9,5.00,0.00,30.4,29.4,00.0,39.3,32.2,13.1,0000.0,0012.65,0003.39,0002.40
2022-05-26 05:37:00,,0825.9,5.00,0.00,30.4,29.4,00.0,39.3,32.2,12.9,0000.0,0011.69,0003.39,0002.41
2022-05-26 05:38:00,,0825.9,5.00,0.00,30.4,29.4,00.0,39.3,32.2,13.0,0000.0,0010.58,0003.36,0002.41
2022-05-26 05:39:00,,0825.9,5.00,0.00,30.4,29.4,00.0,39.3,32.2,12.9,0000.0,0010.16,0003.35,0002.41
2022-05-26 05:40:00,,0825.9,4.98,0.00,30.4,29.4,00.0,39.3,32.2,12.8,0000.0,0009.59,0003.38,0002.41
2022-05-26 05:41:00,,0825.9,5.00,0.00,30.4,29.4,00.0,39.3,32.2,12.7,0000.0,0008.85,0003.37,0002.41
2022-05-26 05:42:00,,0825.9,5.01,0.00,30.4,29.4,00.0,39.3,32.2,12.7,0000.0,0008.85,0003.36,0002.43
2022-05-26 05:43:00,,0826.0,5.00,0.00,30.4,29.4,00.0,39.3,32.2,12.6,0000.0,0008.52,0003.38,0002.45
2022-05-26 05:44:00,,0826.0,5.00,0.00,30.4,29.4,00.0,39.3,32.2,12.6,0000.0,0008.54,0003.38,0002.45
2022-05-26 05:45:00,,0826.0,5.00,0.00,30.4,29.4,00.0,39.3,32.2,12.6,0000.0,0008.22,0003.34,0002.42
2022-05-26 05:46:00,,0826.0,5.00,0.00,30.4,29.4,00.0,39.3,32.2,12.6,0000.0,0008.08,0003.30,0002.39
2022-05-26 05:47:00,,0826.0,5.00,0.00,30.4,29.4,00.0,39.4,32.2,12.5,0000.0,0008.46,0003.25,0002.36
2022-05-26 05:48:00,,0826.0,5.00,0.00,30.4,29.4,00.0,39.4,32.2,12.5,0000.0,0008.50,0003.23,0002.33
2022-05-26 05:49:00,,0826.0,5.01,0.00,30.4,29.4,00.0,39.4,32.2,12.5,0000.0,0008.46,0003.20,0002.31
2022-05-26 05:50:00,,0826.0,5.00,0.00,30.5,29.4,00.0,39.4,32.2,12.5,0000.0,0008.30,0003.15,0002.28
2022-05-26 05:51:00,,0826.0,5.00,0.00,30.5,29.4,00.0,39.4,32.2,12.6,0000.0,0007.96,0003.12,0002.27
2022-05-26 05:52:00,,0826.1,4.99,0.00,30.5,29.4,00.0,39.4,32.2,12.5,0000.0,0007.56,0003.13,0002.25
2022-05-26 05:53:00,,0826.0,4.99,0.00,30.5,29.4,00.0,39.4,32.2,12.6,0000.0,0007.54,0003.14,0002.22
2022-05-26 05:54:00,,0826.0,5.00,0.00,30.5,29.4,00.0,39.4,32.2,12.8,0000.0,0007.16,0003.11,0002.20
2022-05-26 05:55:00,,0826.1,5.00,0.00,30.5,29.4,00.0,39.4,32.2,12.8,0000.0,0006.97,0003.07,0002.18
2022-05-26 05:56:00,,0826.1,5.00,0.00,30.5,29.4,00.0,39.4,32.2,12.6,0000.0,0006.87,0003.06,0002.17
2022-05-26 05:57:00,,0826.1,5.01,0.00,30.5,29.4,00.0,39.4,32.2,12.5,0000.0,0006.49,0003.07,0002.19
2022-05-26 05:58:00,,0826.1,4.99,0.00,30.5,29.4,00.0,39.4,32.2,12.4,0000.0,0005.62,0003.06,0002.18
2022-05-26 05:59:00,,0826.2,4.99,0.00,30.5,29.4,00.0,39.4,32.2,12.4,0000.0,0005.66,0003.03,0002.18
